Анатольевка

Россия / Оренбургская область     52°08′38″N   55°23′16″E
темп.,
°C
ветер,
м/с
пор.,
м/с
влажн.,
%
обл.,
%
осадки,
мм/ч
давл.,
гПа
погр.,
м
8 мая, сб
сб823:00+14юв2253100 0.0 101811
02:00+13в1155100 0.0 101811
05:00+12всв1157100 0.0 101710
08:00+14вюв1153100 0.0 1017103
11:00+19в1239100 0.0 1017726
14:00+21зсз1133100 0.0 10162407
17:00+21сз223157 0.0 10152470
20:00+18ссз3546100 0.0 1016128
9 мая, вс
вс923:00+15ссв235920 0.0 101646
02:00+13ссз226612 0.2 101611
05:00+12ссз11685 0.2 101611
08:00+15ссз22585 0.0 1017176
11:00+20с23431 0.0 10161099
14:00+22ссз22338 0.0 10162402
17:00+22ссз32316 0.0 10152513
20:00+20с12435 0.0 101614
10 мая, пн
пн1023:00+16всв11479 0.0 101611
02:00+14вюв11571 0.0 101711
05:00+13в22590 0.0 101812
08:00+15вюв47598 0.0 1019277
11:00+19вюв454681 0.0 1020893
14:00+22в34387 0.0 10202236
17:00+23в243331 0.0 10202418
20:00+19вюв3858100 0.0 1021275
11 мая, вт
вт1123:00+15вюв4970100 0.0 1023211
02:00+13вюв34738 0.0 102369
05:00+12в1175100 0.0 102410
08:00+15в3465100 0.0 1025183
11:00+20ююв234998 0.0 10271006
14:00+22в2339100 0.0 10261907
17:00+23всв233642 0.0 10252184
20:00+20св355342 0.0 1026128
12 мая, ср
ср1223:00+16всв226142 0.0 102715
02:00+14ссв357444 0.0 102769
05:00+13ссв35845 0.0 102790
08:00+17всв35705 0.0 1028262
11:00+21вюв44517 0.0 10281004
14:00+23вюв33426 0.0 10271868
17:00+24в22375 0.0 10262086
20:00+22юв224982 0.0 102621